Temperature
23 24 23 23 23 23 23 23 22 22 22 22 22 22 22 21 20 20 20 19 19 19 18 17 17 17 17 17 17 17 16 16 16 16 16 16 15 15 15 15 15 15 15 15
23 23 23 23 23 22 23 22 22 22 22 22 22 22 22 21 20 20 20 20 19 19 18 17 17 17 17 17 16 16 16 16 16 16 16 16 15 15 15 15 15 15 15 15
23 23 23 22 22 22 22 23 22 22 21 22 22 22 22 22 21 20 19 19 19 19 18 18 17 17 17 17 16 16 16 16 16 16 16 16 16 15 15 15 15 15 15 15
23 23 22 22 22 23 22 23 22 22 22 22 22 22 23 23 22 21 20 19 19 18 18 18 18 17 17 17 17 16 16 16 16 16 16 16 15 15 15 15 15 15 15 15
22 22 22 22 22 23 22 22 22 22 22 22 22 22 23 23 22 22 21 20 19 18 18 18 17 17 17 17 17 16 16 16 16 16 16 15 15 15 15 15 15 15 15 15
22 22 22 22 22 22 22 22 22 22 22 22 22 22 23 23 23 23 22 20 19 18 18 18 17 17 17 17 16 16 16 16 16 16 15 15 15 15 15 15 15 15 15 15
22 22 22 22 22 21 22 22 22 22 22 22 22 22 23 24 23 23 22 21 20 19 18 18 17 17 17 16 16 16 16 16 16 16 15 15 15 15 15 15 15 15 14 14
22 22 22 22 22 22 22 23 22 22 22 23 22 22 24 23 22 21 21 20 19 19 18 18 17 17 16 16 16 16 16 16 16 16 15 15 15 15 15 14 14 14 14 14
23 22 22 22 22 23 22 23 23 23 22 22 23 23 23 22 22 21 21 20 19 19 18 17 17 17 16 16 16 16 16 16 16 15 15 15 15 15 14 14 14 14 14 14
23 22 22 21 22 21 22 23 22 22 22 22 22 23 23 23 23 22 21 20 19 18 18 17 17 16 16 16 16 16 16 16 15 15 15 15 15 14 14 14 14 14 14 14
23 22 22 22 22 22 22 22 22 23 22 22 22 23 23 23 23 22 22 20 19 18 18 17 16 16 16 16 16 15 15 15 15 15 15 15 15 14 14 14 14 14 14 13
22 23 22 22 22 22 22 23 22 22 22 22 22 23 23 22 22 22 21 20 19 18 17 17 16 16 16 15 15 15 15 15 15 15 15 14 14 14 14 14 14 14 13 13
22 22 22 22 22 21 22 22 22 22 22 22 22 23 22 22 22 21 20 19 18 17 17 16 16 16 15 15 15 15 15 15 15 15 14 14 14 14 14 13 13 13 13 13
21 22 22 22 22 22 22 21 21 22 22 22 22 23 23 22 22 21 19 19 18 17 16 16 15 15 15 15 15 15 15 15 14 14 14 14 14 13 13 13 13 13 13 13
21 22 22 22 21 21 21 21 21 21 22 22 22 22 23 22 21 20 19 18 17 16 16 16 15 15 15 15 15 15 14 14 14 14 14 13 13 13 13 13 13 12 12 12
21 21 21 21 21 21 21 21 21 21 21 21 21 22 22 21 20 19 18 17 17 16 16 15 15 15 15 15 15 14 14 14 14 14 13 13 13 13 13 12 12 12 12 12
21 21 21 21 21 20 21 21 21 21 21 21 21 21 20 20 19 19 18 17 16 16 15 15 15 15 15 15 15 14 14 14 13 13 13 13 13 12 12 12 12 12 12 12
20 20 21 21 20 20 21 21 20 20 20 20 20 20 19 19 18 17 17 16 16 15 15 15 15 15 14 14 14 14 14 14 13 13 13 13 13 12 12 12 12 11 11 11
19 20 20 20 20 21 20 20 19 20 20 20 19 19 18 17 17 17 16 15 15 15 15 15 15 14 14 14 14 14 13 13 13 13 13 12 12 12 12 11 11 11 11 11
17 19 20 20 19 20 20 19 18 19 20 19 18 18 17 17 19 19 15 15 15 14 14 14 14 14 14 14 13 13 13 13 12 12 12 12 11 11 11 11 11 11 11 11
18 18 19 19 19 20 19 17 18 19 19 18 17 17 16 17 17 16 14 14 14 14 14 14 14 14 13 13 13 13 12 12 12 12 11 11 11 11 11 10 10 10 10 10
19 19 19 19 19 19 17 17 18 18 17 16 16 16 15 15 14 14 14 13 13 13 13 13 13 13 13 13 13 12 12 12 12 11 11 11 11 10 10 10 10 10 9 9
18 18 18 18 18 17 15 16 16 15 16 15 15 15 14 14 14 13 13 13 13 13 13 13 13 12 12 12 12 12 12 11 11 11 11 10 10 10 10 10 10 9 9 9
16 15 16 17 17 16 15 14 14 14 14 14 14 14 14 13 13 13 13 13 12 12 12 12 12 12 12 11 11 11 11 10 10 10 10 10 10 10 10 9 9 9 9 8
15 15 16 16 16 15 14 14 14 13 13 13 13 13 13 13 13 12 12 12 12 12 12 11 11 11 11 11 10 10 10 10 10 10 9 9 9 9 9 9 9 9 8 8
15 15 15 16 15 15 15 13 13 13 13 13 13 12 12 12 12 12 12 12 11 11 11 11 11 11 10 10 10 10 9 9 9 9 9 9 9 9 8 8 8 8 8 8
Wind_Speed
3 4 4 4 5 3 3 3 3 2 2 4 5 5 4 5 7 7 8 8 8 7 7 6 6 5 5 4 4 5 5 5 4 3 3 2 2 1 1 1 2 2 2 2
4 4 3 3 4 5 5 5 4 2 2 3 3 5 5 5 7 8 8 8 8 8 8 7 7 6 6 5 5 5 5 5 5 3 3 2 2 1 1 1 1 2 2 2
5 1 3 5 6 6 6 6 5 3 3 5 4 5 6 6 7 7 7 7 8 8 8 8 8 7 7 6 6 5 6 6 5 4 3 2 2 1 2 2 1 1 2 3
3 3 3 5 6 7 5 3 5 6 6 3 4 4 4 6 7 8 8 9 9 8 8 8 8 7 7 7 6 6 6 6 6 6 5 4 3 3 2 2 2 2 3 3
3 3 4 5 4 5 2 2 4 5 5 5 5 5 2 4 5 7 8 9 9 9 9 8 8 8 7 7 6 6 6 5 5 5 5 5 4 3 2 2 3 3 3 3
3 3 3 3 1 3 4 4 4 4 5 5 4 6 3 3 4 4 6 8 9 9 9 9 8 7 7 6 6 6 6 5 5 5 5 6 5 4 4 3 3 3 3 3
5 5 4 3 4 5 6 5 4 4 4 3 2 5 3 0 2 3 4 7 8 9 9 9 8 7 7 7 6 6 6 6 5 5 5 6 5 5 5 4 4 4 3 3
5 5 5 4 5 5 7 7 4 3 3 2 3 5 2 0 2 2 3 5 7 8 8 8 9 8 8 7 7 7 7 6 5 5 5 5 5 4 4 4 4 4 3 3
4 3 3 3 3 4 5 6 4 5 5 4 3 3 3 3 3 3 3 4 6 7 8 8 8 8 8 8 8 7 7 7 6 6 5 5 5 5 4 4 3 3 3 3
4 4 3 3 4 2 4 3 4 5 4 5 4 5 3 3 3 4 4 4 5 6 7 7 7 8 8 7 7 7 7 7 6 6 5 4 5 5 4 4 4 3 3 3
6 5 4 5 6 6 5 5 5 5 5 5 4 1 0 2 2 3 3 3 4 5 6 6 6 7 7 7 7 7 7 6 6 6 5 5 5 4 4 4 4 3 3 3
5 4 5 5 2 3 6 6 7 6 5 6 6 3 2 1 2 2 3 3 3 4 5 6 6 6 6 6 6 6 6 6 6 5 5 5 5 5 5 4 4 4 3 3
5 5 5 5 5 5 5 5 6 7 6 7 7 4 2 1 3 2 2 2 3 3 4 5 6 6 7 7 6 6 6 5 5 5 5 5 5 5 5 5 4 4 4 4
4 6 7 6 4 3 5 6 7 8 8 9 10 9 6 5 5 4 4 3 3 4 5 5 5 6 6 7 6 6 5 5 5 5 5 5 5 5 5 4 4 4 4 3
5 7 7 6 5 6 8 8 9 11 11 11 10 10 9 7 6 5 4 3 3 4 4 5 5 5 6 6 6 6 5 5 5 5 5 5 5 5 4 4 4 4 4 4
4 6 7 8 6 7 9 9 10 11 11 11 11 10 6 5 4 3 2 3 4 4 4 4 5 5 6 6 6 6 6 6 6 6 5 5 4 4 4 4 4 4 4 4
4 6 7 8 5 6 8 7 8 7 6 7 9 6 4 4 5 4 3 3 4 4 4 4 4 5 5 6 6 6 6 5 6 5 5 5 5 4 4 4 4 4 4 4
6 7 6 6 6 9 2 1 3 5 5 5 5 5 4 5 5 3 3 3 3 3 3 4 3 3 4 4 5 5 5 5 5 5 5 5 5 5 4 4 4 5 4 4
6 7 6 6 8 8 3 1 2 4 4 3 4 5 4 4 4 2 2 3 3 3 2 3 3 3 3 3 4 5 5 5 5 5 5 5 5 4 4 5 5 5 4 5
4 6 7 7 8 7 3 0 2 5 5 2 3 3 3 2 4 2 2 3 3 2 1 1 1 2 2 3 4 5 5 5 5 5 5 5 5 5 5 5 5 4 4 4
5 5 8 9 9 6 2 1 3 5 3 3 3 3 3 3 4 4 3 3 3 2 2 1 1 1 1 2 4 5 5 5 4 4 4 4 5 5 5 4 4 4 4 4
6 6 7 7 8 5 2 2 2 3 4 3 3 2 3 3 3 2 2 2 2 2 2 1 1 1 1 2 4 4 4 4 4 4 4 4 4 4 4 4 4 4 4 5
4 4 4 4 3 2 2 1 3 4 3 4 3 3 3 2 2 2 2 2 2 2 2 1 1 2 2 2 3 4 4 3 3 4 4 4 4 4 4 5 5 4 4 5
3 2 3 4 3 2 1 2 3 3 3 4 3 3 2 2 2 2 2 2 2 2 2 2 2 2 2 2 3 4 3 3 4 4 4 4 4 4 4 4 4 4 4 5
3 2 4 5 3 3 3 3 3 3 2 3 3 3 2 2 2 2 2 3 3 3 3 3 3 3 3 3 3 3 3 4 4 5 4 4 4 4 4 4 4 5 5 4
4 5 5 5 3 4 4 4 3 2 2 3 3 3 3 3 3 3 3 3 3 3 3 3 3 3 3 3 3 3 4 4 5 5 5 4 4 4 4 4 4 3 5 4
Wind_Direction
172 198 203 204 219 245 233 231 238 239 211 220 236 252 243 214 209 214 210 207 206 204 198 192 194 197 189 185 189 180 184 179 173 177 186 187 183 190 184 169 177 173 168 159
184 212 227 205 200 208 218 234 237 215 195 230 251 263 243 214 214 216 214 209 208 205 200 195 196 195 197 197 202 198 197 193 188 190 194 190 188 200 198 203 204 198 188 179
215 204 181 197 199 210 228 239 237 234 221 225 258 254 225 212 214 215 220 221 213 208 207 200 200 202 201 202 205 208 207 201 198 194 187 167 164 181 191 207 208 206 204 203
224 223 202 213 222 230 237 243 238 231 235 240 242 272 226 204 210 216 217 217 217 210 209 204 203 203 203 205 205 209 208 205 200 195 201 206 213 218 222 210 198 197 202 206
199 203 218 227 235 235 227 199 219 230 249 255 236 261 233 190 219 218 213 212 213 209 207 204 204 205 205 202 202 207 206 205 200 205 206 215 223 228 219 206 200 205 203 211
225 217 243 247 210 202 164 170 188 217 243 253 238 247 250 201 232 226 210 206 206 205 204 202 199 202 204 198 196 201 202 201 201 208 211 216 221 225 223 225 218 214 208 215
215 215 206 202 183 179 208 228 232 220 222 245 205 245 255 292 262 251 224 208 202 201 202 200 198 201 204 201 201 201 202 202 203 209 215 218 223 227 230 234 231 228 222 220
215 210 192 202 225 217 214 237 261 272 266 265 214 244 246 270 270 250 222 206 198 197 201 200 200 199 201 202 203 204 205 207 207 212 218 221 222 228 238 239 240 234 235 234
224 202 154 196 224 230 214 229 270 275 273 272 243 240 242 205 215 207 204 195 195 196 197 199 198 199 198 200 201 202 203 206 207 214 218 220 222 223 231 238 238 240 233 226
248 227 182 170 187 215 253 232 224 246 266 267 258 254 236 200 207 208 212 209 202 198 198 198 197 198 198 198 200 201 204 207 209 214 215 215 217 220 229 231 231 236 230 219
232 229 192 185 214 217 198 210 232 246 261 277 284 274 350 271 238 223 221 214 204 201 200 197 191 190 193 193 195 198 204 210 213 218 219 216 216 218 221 227 231 232 225 226
219 241 231 214 198 264 238 238 230 246 251 254 278 287 77 270 277 260 237 210 195 196 196 190 184 183 187 191 194 199 204 208 211 217 219 217 213 211 215 221 224 226 226 229
191 228 230 208 191 193 216 225 236 249 258 253 257 264 125 238 275 282 261 223 197 188 184 184 184 187 190 192 194 200 206 210 208 209 211 211 209 210 213 221 221 220 222 227
224 238 248 257 271 231 232 227 228 235 250 256 257 272 276 283 281 277 265 244 214 198 189 187 190 193 196 197 198 201 206 206 203 200 204 207 211 213 215 219 220 222 223 229
225 245 246 258 264 251 252 249 237 239 251 263 274 279 292 301 292 274 257 232 209 198 197 195 198 198 199 201 203 206 208 205 202 202 208 212 216 214 217 218 222 225 225 236
229 247 245 243 245 250 256 254 245 246 252 257 269 276 304 311 298 270 241 217 213 209 208 206 206 204 205 205 206 206 206 204 201 205 210 210 214 210 214 219 224 227 227 233
222 239 246 250 248 253 251 248 240 236 242 252 265 286 306 300 293 280 260 233 228 227 220 219 223 218 217 212 210 209 207 201 201 206 210 210 210 211 217 220 222 225 225 227
232 235 243 254 246 246 251 65 246 235 243 258 271 290 292 300 302 290 283 270 260 244 238 236 234 229 225 216 207 204 201 201 204 207 211 211 212 215 218 220 226 233 234 228
232 232 237 243 250 255 235 228 235 237 249 289 279 290 299 312 295 253 309 306 281 269 257 249 244 231 217 211 203 196 196 200 205 209 213 212 212 216 217 223 230 235 236 234
194 227 237 238 249 253 260 321 265 242 240 339 303 287 289 290 278 309 358 329 319 317 298 278 252 225 209 207 203 201 203 207 216 219 220 217 216 219 223 229 233 233 236 240
198 214 230 241 248 254 336 350 209 236 308 357 311 287 261 260 304 334 332 329 337 330 325 316 248 222 224 211 201 211 217 223 227 226 223 221 221 225 227 231 233 232 235 244
227 226 230 239 245 252 65 134 214 315 354 345 335 319 285 287 330 342 349 343 344 340 333 296 245 246 239 215 205 212 226 232 225 222 225 228 229 229 224 225 232 237 239 245
235 252 254 246 269 24 118 205 339 341 325 331 327 323 313 303 326 342 336 333 333 324 315 293 265 261 262 240 223 227 237 234 222 217 223 230 234 233 232 229 231 236 239 245
225 277 248 249 255 295 307 322 324 324 322 333 336 333 322 307 322 333 330 327 325 318 314 304 284 272 276 270 253 252 256 238 227 232 238 237 238 240 240 241 240 242 246 250
248 226 246 254 269 291 290 309 317 327 329 337 345 342 331 322 324 330 326 322 323 317 307 296 281 276 276 276 268 261 253 242 237 240 245 247 246 247 247 244 245 246 250 259
223 226 237 255 267 276 297 331 338 336 340 343 347 346 347 339 326 329 327 324 321 316 310 299 294 289 284 280 276 272 260 250 247 249 249 248 247 246 245 247 254 252 248 259
Height
1524 1523 1524 1524 1524 1525 1525 1527 1529 1529 1530 1531 1531 1531 1531 1533 1535 1535 1536 1538 1539 1541 1543 1544 1545 1547 1548 1549 1550 1551 1551 1552 1552 1553 1554 1554 1554 1554 1554 1554 1554 1554 1554 1555
1523 1524 1523 1524 1525 1526 1526 1528 1528 1529 1529 1530 1529 1528 1527 1529 1531 1532 1533 1535 1537 1539 1541 1542 1544 1545 1546 1548 1549 1550 1550 1551 1552 1552 1553 1553 1554 1554 1554 1554 1554 1554 1554 1554
1522 1523 1524 1524 1525 1526 1526 1526 1527 1529 1530 1528 1529 1527 1525 1525 1528 1530 1532 1533 1534 1536 1538 1540 1542 1543 1545 1546 1547 1548 1549 1550 1551 1551 1552 1552 1553 1553 1553 1553 1553 1553 1553 1554
1522 1522 1524 1524 1524 1523 1526 1524 1526 1528 1529 1528 1528 1529 1519 1520 1523 1526 1528 1530 1531 1533 1535 1537 1539 1541 1543 1544 1545 1547 1548 1549 1549 1550 1551 1552 1552 1552 1552 1552 1552 1552 1552 1553
1521 1522 1523 1523 1523 1522 1524 1525 1525 1526 1527 1527 1525 1527 1518 1517 1519 1520 1523 1526 1528 1531 1532 1535 1537 1539 1540 1542 1543 1545 1546 1547 1548 1548 1549 1550 1551 1551 1551 1551 1551 1551 1551 1551
1520 1522 1522 1522 1523 1523 1525 1525 1526 1525 1525 1531 1523 1525 1519 1512 1514 1515 1519 1522 1525 1527 1530 1532 1534 1536 1538 1539 1541 1542 1543 1545 1546 1547 1547 1548 1549 1549 1549 1549 1549 1550 1550 1550
1520 1520 1521 1522 1523 1524 1524 1525 1531 1531 1531 1527 1520 1522 1516 1509 1512 1514 1516 1519 1521 1524 1527 1529 1531 1533 1535 1536 1538 1539 1541 1542 1543 1544 1545 1546 1547 1547 1548 1548 1547 1548 1548 1548
1521 1522 1518 1519 1519 1520 1520 1521 1529 1534 1530 1522 1520 1519 1511 1510 1512 1514 1515 1517 1519 1521 1524 1526 1528 1530 1532 1533 1535 1537 1538 1539 1541 1542 1543 1544 1545 1545 1546 1546 1545 1545 1545 1545
1517 1519 1517 1518 1518 1517 1519 1518 1517 1521 1521 1524 1516 1512 1509 1509 1511 1513 1514 1515 1517 1519 1521 1523 1525 1527 1529 1531 1532 1534 1536 1537 1539 1540 1541 1541 1542 1543 1543 1543 1543 1543 1543 1543
1512 1517 1516 1518 1519 1519 1517 1516 1519 1522 1528 1527 1519 1514 1510 1506 1507 1509 1511 1513 1515 1517 1519 1521 1522 1524 1526 1528 1530 1532 1533 1535 1536 1537 1538 1539 1539 1540 1540 1541 1541 1540 1540 1540
1511 1514 1517 1516 1517 1516 1518 1519 1517 1516 1518 1524 1523 1515 1503 1504 1506 1507 1509 1511 1513 1515 1516 1518 1520 1522 1524 1526 1527 1529 1530 1532 1533 1534 1535 1536 1537 1537 1538 1538 1538 1538 1538 1538
1511 1510 1513 1512 1512 1513 1512 1512 1514 1520 1519 1518 1519 1515 1503 1505 1507 1508 1509 1510 1512 1513 1515 1516 1518 1519 1521 1523 1525 1526 1528 1529 1530 1531 1532 1533 1534 1534 1534 1535 1535 1535 1535 1535
1511 1511 1516 1516 1517 1515 1513 1513 1513 1512 1513 1515 1518 1513 1503 1505 1506 1508 1509 1510 1511 1512 1513 1514 1516 1517 1519 1520 1522 1523 1525 1526 1527 1528 1529 1530 1531 1531 1531 1532 1532 1532 1532 1532
1511 1507 1511 1516 1510 1509 1511 1513 1513 1513 1513 1512 1510 1505 1502 1503 1505 1507 1508 1509 1510 1511 1512 1512 1513 1515 1516 1518 1519 1520 1522 1523 1524 1525 1526 1526 1527 1528 1528 1528 1529 1529 1529 1529
1509 1507 1506 1506 1507 1508 1509 1509 1510 1510 1507 1508 1504 1503 1501 1502 1504 1506 1507 1508 1508 1509 1510 1510 1511 1512 1514 1515 1516 1517 1519 1520 1521 1521 1522 1523 1524 1524 1525 1525 1525 1526 1526 1526
1507 1506 1506 1508 1507 1507 1507 1506 1506 1507 1505 1505 1504 1503 1502 1503 1504 1505 1506 1506 1507 1507 1508 1508 1509 1510 1511 1512 1513 1515 1516 1517 1517 1518 1519 1520 1521 1521 1521 1522 1522 1522 1522 1522
1506 1506 1507 1506 1505 1507 1507 1502 1502 1503 1503 1503 1504 1502 1503 1504 1504 1504 1505 1505 1505 1505 1506 1507 1507 1508 1508 1509 1511 1512 1513 1514 1514 1515 1516 1516 1517 1517 1518 1518 1519 1519 1519 1519
1506 1505 1505 1505 1507 1513 1502 1500 1501 1501 1502 1502 1502 1503 1504 1504 1504 1504 1505 1504 1504 1504 1504 1505 1505 1506 1506 1507 1508 1509 1510 1511 1511 1512 1513 1513 1513 1514 1515 1515 1515 1516 1516 1516
1506 1505 1505 1504 1505 1501 1500 1500 1502 1502 1501 1502 1502 1503 1503 1504 1503 1502 1503 1503 1503 1502 1502 1503 1503 1503 1504 1504 1505 1506 1507 1507 1508 1508 1509 1510 1510 1511 1511 1511 1512 1512 1512 1512
1507 1505 1504 1504 1507 1505 1499 1499 1501 1503 1500 1502 1502 1502 1503 1502 1500 1500 1502 1501 1501 1501 1501 1501 1501 1501 1501 1501 1502 1503 1504 1504 1505 1505 1506 1507 1507 1507 1508 1508 1508 1509 1509 1508
1503 1504 1503 1502 1501 1496 1499 1501 1501 1504 1501 1502 1501 1501 1502 1502 1501 1502 1500 1500 1499 1499 1499 1499 1499 1499 1499 1499 1500 1500 1501 1501 1502 1502 1503 1503 1504 1504 1504 1505 1505 1505 1505 1505
1498 1500 1501 1501 1502 1502 1501 1501 1501 1501 1501 1502 1501 1501 1501 1501 1501 1500 1499 1498 1497 1497 1497 1497 1497 1496 1496 1497 1497 1497 1497 1498 1498 1499 1499 1499 1500 1500 1500 1501 1501 1501 1501 1501
1499 1499 1497 1498 1501 1502 1502 1502 1503 1502 1502 1501 1501 1501 1501 1500 1499 1498 1497 1497 1496 1496 1496 1495 1495 1494 1494 1494 1494 1494 1494 1495 1495 1495 1495 1495 1496 1496 1497 1497 1497 1497 1496 1496
1500 1503 1501 1499 1499 1502 1503 1502 1502 1502 1502 1501 1501 1500 1499 1499 1498 1497 1496 1496 1495 1495 1494 1493 1492 1492 1492 1491 1491 1491 1491 1491 1491 1491 1491 1492 1492 1492 1492 1492 1492 1492 1492 1492
1501 1502 1500 1499 1500 1502 1502 1502 1501 1501 1500 1500 1499 1499 1498 1497 1496 1496 1495 1494 1494 1493 1492 1491 1490 1489 1489 1488 1488 1488 1488 1488 1488 1488 1488 1488 1488 1488 1488 1488 1487 1487 1487 1487
1501 1501 1500 1498 1500 1501 1501 1501 1500 1500 1499 1499 1498 1497 1497 1496 1495 1494 1494 1493 1492 1491 1490 1489 1488 1487 1486 1485 1485 1484 1484 1484 1484 1484 1483 1483 1483 1483 1483 1482 1482 1482 1482 1481